SCP
0 0 -0 -0 -0 -0 -0 -0 -0 -0 -0 -0 -0 -0 -0 0 -0 -0 -0 -0 -0 0 0 0 0 0 0 0 0 0 0 0
0 0 0 -0 -0 -0 -0 -0 -0 -0 -0 -0 -0 -0 -0 0 -0 -0 0 -0 0 0 0 0 0 0 0 0 0 0 0 0
-0 0 0 -0 -0 -0 -0 -0 -0 -0 -0 -0 -0 -0 -0 0 0 0 -0 -0 0 0 0 0 0 0 0 0 0 0 0 0
0 0 0 0 -0 -0 -0 0 -0 -0 -0 -0 -0 -0 -0 -0 -0 -0 -0 -0 -0 0 0 0 -0 -0 -0 -0 0 0 0 -0
0 0 0 0 0 0 0 0 -0 -0 -0 -0 -0 -0 -0 -0 -0 -0 -0 -0 -0 -0 -0 0 -0 -0 -0 -0 0 -0 -0 -0
0 0 0 0 0 0 0 0 -0 -0 -0 -0 -0 -0 -0 -0 -0 0 0 -0 -0 -0 -0 -0 -0 -0 -0 -0 -0 -0 -0 0
-0 -0 0 0 0 0 0 0 0 0 -0 0 0 0 -0 -0 -0 0 0 -0 -0 -0 -0 -0 -0 -0 -0 0 0 0 0 0
-0 -0 -0 -0 -0 -0 -0 0 0 0 0 -0 0 0 0 -0 -0 -0 -0 -0 -0 -0 0 0 0 0 0 0 0 0 0 -0
-0 -0 -0 -0 -0 -0 0 0 0 0 0 0 -0 -0 0 -0 -0 -0 -0 -0 0 0 0 0 0 0 0 0 0 0 0 -0
-0 -0 -0 -0 -0 -0 -0 0 0 0 0 0 0 0 0 -0 -0 -0 -0 -0 -0 0 0 0 0 0 0 0 0 0 0 0
-0 -0 -0 -0 -0 -0 -0 -0 -0 0 0 0 0 0 0 0 0 -0 -0 -0 -0 -0 0 0 0 0 0 0 0 0 0 0
-0 -0 -0 -0 -0 -0 -0 -0 -0 -0 0 0 0 0 0 0 0 0 0 -0 -0 -0 -0 -0 0 0 0 0 0 0 0 0
0 0 0 -0 -0 -0 -0 -0 0 0 0 0 0 0 0 0 0 0 0 0 0 0 0 0 0 0 0 0 0 0 0 0
-0 -0 -0 -0 -0 0 0 0 0 0 0 0 0 0 0 0 0 0 0 0 0 0 0 0 1 0 0 0 0 0 0 0
-0 -0 -0 0 0 0 0 0 0 0 0 0 0 0 0 0 0 0 0 0 0 0 0 0 1 1 0 0 0 0 0 0
-0 -0 -0 -0 0 0 0 0 0 0 0 0 0 0 0 0 0 0 0 0 0 1 1 1 1 1 0 0 0 0 0 0
0 0 0 0 0 0 0 0 1 0 0 0 0 0 0 0 0 0 0 0 1 1 1 1 1 0 0 0 0 0 0 0
0 0 0 0 0 0 0 1 1 0 0 0 0 0 0 1 0 0 1 1 1 1 1 1 1 0 0 0 0 0 0 0
0 0 0 0 0 0 0 0 0 0 0 0 0 0 0 0 1 1 1 1 1 2 2 1 0 0 0 0 0 0 0 0
Wind_Speed_500mb
46 47 45 41 37 38 39 39 39 39 38 37 36 34 33 31 31 30 29 27 25 25 24 23 20 17 15 11 8 6 6 6
45 45 43 40 39 39 39 39 40 39 38 36 34 33 31 29 27 26 26 25 23 22 21 20 17 15 13 10 7 5 3 5
44 43 42 41 39 39 39 39 39 38 37 35 32 30 28 26 24 23 22 21 20 20 19 16 13 12 10 7 5 4 5 5
40 42 43 42 41 39 38 38 38 38 36 33 31 28 26 24 21 19 17 16 15 14 13 11 8 7 7 6 3 4 9 11
39 39 40 41 41 39 39 39 39 38 36 33 31 28 25 22 19 17 14 11 9 9 8 6 6 5 3 3 6 9 13 14
39 38 38 39 39 39 38 39 39 38 36 34 32 29 27 23 20 17 13 11 8 8 6 7 9 7 5 1 8 11 15 14
38 37 39 39 38 39 40 40 39 38 38 36 33 31 29 25 22 19 17 14 9 12 13 12 8 6 6 7 8 9 19 19
33 38 39 39 39 39 39 37 37 38 38 37 36 35 32 30 28 21 21 19 14 13 16 14 10 8 7 10 13 17 15 19
45 30 39 41 40 38 38 38 37 38 37 39 38 38 38 35 33 26 25 22 19 16 17 17 14 12 11 16 18 18 22 21
47 40 38 43 44 41 40 40 40 39 39 36 37 39 40 38 36 29 28 28 24 23 20 17 14 14 12 15 16 20 22 20
55 55 45 45 44 45 44 44 44 43 39 39 40 40 39 37 37 35 33 35 33 27 23 22 22 24 22 20 18 21 24 22
67 63 60 54 54 51 44 43 46 47 44 44 44 43 41 40 38 38 37 35 30 26 28 35 29 29 25 25 27 25 27 27
67 76 71 66 61 60 53 46 49 50 48 43 44 41 40 38 34 38 42 40 32 35 35 35 32 35 32 36 37 36 33 29
41 62 78 78 70 66 59 53 53 51 49 43 42 47 45 41 39 39 41 42 40 45 46 46 42 39 38 39 40 36 34 29
7 24 40 63 75 75 74 66 62 58 52 51 49 51 52 48 44 44 44 43 46 49 51 51 48 46 47 46 42 37 34 25
52 22 3 31 46 64 71 81 75 70 58 59 61 62 60 59 57 57 54 48 44 54 53 55 53 52 51 49 42 34 31 23
83 67 36 13 22 41 48 71 82 78 69 69 68 69 64 58 57 61 65 65 60 54 61 63 60 56 51 49 44 32 14 17
87 85 71 53 28 5 33 43 51 66 70 74 75 73 70 69 64 67 70 70 72 66 66 69 65 59 56 51 46 33 16 16
77 72 69 64 47 30 6 22 33 43 65 66 64 60 57 70 74 79 79 75 74 79 73 74 76 63 58 55 51 52 43 26
Wind_Direction_500mb
170 169 174 176 173 168 167 161 157 153 150 149 145 140 135 131 128 126 125 124 120 115 112 113 119 123 127 134 128 98 72 31
167 170 176 175 173 170 170 165 162 158 156 155 150 144 140 137 132 131 126 123 119 114 110 111 115 116 118 119 110 75 23 352
171 171 175 175 177 175 173 170 167 165 164 161 157 152 149 145 141 136 127 123 117 113 110 111 111 111 110 99 75 27 7 359
175 176 178 178 180 178 176 175 174 173 172 168 166 165 162 157 152 145 137 129 123 118 118 120 121 122 116 101 63 328 318 327
182 184 184 184 185 182 181 180 181 181 180 178 177 178 178 175 170 168 158 145 143 142 145 147 149 134 102 64 358 354 347 346
187 190 192 193 190 188 187 187 187 189 188 188 188 190 193 192 189 186 174 174 176 176 171 149 136 144 184 312 333 343 348 3
193 199 200 201 198 195 194 194 195 196 197 198 198 202 205 204 205 198 189 183 177 176 182 177 183 207 218 276 309 323 325 331
197 207 207 207 206 206 203 202 203 204 206 206 207 209 211 213 213 210 200 182 167 166 171 183 220 230 267 291 309 320 339 339
206 202 206 210 212 213 212 212 212 213 213 214 215 215 217 219 219 221 213 198 199 207 206 220 229 249 256 278 293 308 317 315
215 208 207 213 214 214 217 218 217 219 221 222 223 224 224 225 228 224 211 210 218 220 227 223 242 243 280 306 302 317 305 326
223 220 217 217 215 215 217 221 221 220 221 223 226 228 231 232 233 235 228 226 228 233 233 246 253 260 267 275 288 285 297 305
222 225 225 226 217 214 214 218 219 222 220 224 228 230 232 234 238 241 243 241 243 247 262 262 256 255 263 276 287 283 287 293
257 246 237 230 226 223 219 220 219 221 223 224 223 223 226 227 234 240 246 250 250 251 257 251 258 260 261 273 280 284 289 282
283 261 252 246 237 237 233 232 232 233 234 236 230 228 224 224 230 238 243 245 246 248 250 248 253 258 264 271 282 285 285 291
329 242 253 251 248 243 239 237 238 244 247 248 250 250 247 242 238 237 242 244 245 249 247 246 251 255 267 274 281 279 278 266
45 47 346 237 243 256 253 247 244 245 247 249 250 252 253 255 258 261 260 251 246 250 253 253 253 256 265 270 272 267 272 266
37 41 55 76 228 241 268 260 251 253 250 248 250 256 258 262 264 268 273 274 266 257 248 249 251 256 261 267 260 250 212 188
30 31 30 36 51 221 237 242 260 257 252 247 250 252 255 257 259 264 265 269 273 263 262 252 248 255 259 259 248 234 198 203
12 16 22 23 25 34 25 237 252 258 257 259 250 252 259 263 261 267 270 268 265 268 264 263 258 249 249 244 242 236 227 222
Wind_Speed_850mb
46 47 45 41 37 38 39 39 39 39 38 37 36 34 33 31 31 30 29 27 25 25 24 23 20 17 15 11 8 6 6 6
45 45 43 40 39 39 39 39 40 39 38 36 34 33 31 29 27 26 26 25 23 22 21 20 17 15 13 10 7 5 3 5
44 43 42 41 39 39 39 39 39 38 37 35 32 30 28 26 24 23 22 21 20 20 19 16 13 12 10 7 5 4 5 5
40 42 43 42 41 39 38 38 38 38 36 33 31 28 26 24 21 19 17 16 15 14 13 11 8 7 7 6 3 4 9 11
39 39 40 41 41 39 39 39 39 38 36 33 31 28 25 22 19 17 14 11 9 9 8 6 6 5 3 3 6 9 13 14
39 38 38 39 39 39 38 39 39 38 36 34 32 29 27 23 20 17 13 11 8 8 6 7 9 7 5 1 8 11 15 14
38 37 39 39 38 39 40 40 39 38 38 36 33 31 29 25 22 19 17 14 9 12 13 12 8 6 6 7 8 9 19 19
33 38 39 39 39 39 39 37 37 38 38 37 36 35 32 30 28 21 21 19 14 13 16 14 10 8 7 10 13 17 15 19
45 30 39 41 40 38 38 38 37 38 37 39 38 38 38 35 33 26 25 22 19 16 17 17 14 12 11 16 18 18 22 21
47 40 38 43 44 41 40 40 40 39 39 36 37 39 40 38 36 29 28 28 24 23 20 17 14 14 12 15 16 20 22 20
55 55 45 45 44 45 44 44 44 43 39 39 40 40 39 37 37 35 33 35 33 27 23 22 22 24 22 20 18 21 24 22
67 63 60 54 54 51 44 43 46 47 44 44 44 43 41 40 38 38 37 35 30 26 28 35 29 29 25 25 27 25 27 27
67 76 71 66 61 60 53 46 49 50 48 43 44 41 40 38 34 38 42 40 32 35 35 35 32 35 32 36 37 36 33 29
41 62 78 78 70 66 59 53 53 51 49 43 42 47 45 41 39 39 41 42 40 45 46 46 42 39 38 39 40 36 34 29
7 24 40 63 75 75 74 66 62 58 52 51 49 51 52 48 44 44 44 43 46 49 51 51 48 46 47 46 42 37 34 25
52 22 3 31 46 64 71 81 75 70 58 59 61 62 60 59 57 57 54 48 44 54 53 55 53 52 51 49 42 34 31 23
83 67 36 13 22 41 48 71 82 78 69 69 68 69 64 58 57 61 65 65 60 54 61 63 60 56 51 49 44 32 14 17
87 85 71 53 28 5 33 43 51 66 70 74 75 73 70 69 64 67 70 70 72 66 66 69 65 59 56 51 46 33 16 16
77 72 69 64 47 30 6 22 33 43 65 66 64 60 57 70 74 79 79 75 74 79 73 74 76 63 58 55 51 52 43 26
Wind_Direction_850mb
170 169 174 176 173 168 167 161 157 153 150 149 145 140 135 131 128 126 125 124 120 115 112 113 119 123 127 134 128 98 72 31
167 170 176 175 173 170 170 165 162 158 156 155 150 144 140 137 132 131 126 123 119 114 110 111 115 116 118 119 110 75 23 352
171 171 175 175 177 175 173 170 167 165 164 161 157 152 149 145 141 136 127 123 117 113 110 111 111 111 110 99 75 27 7 359
175 176 178 178 180 178 176 175 174 173 172 168 166 165 162 157 152 145 137 129 123 118 118 120 121 122 116 101 63 328 318 327
182 184 184 184 185 182 181 180 181 181 180 178 177 178 178 175 170 168 158 145 143 142 145 147 149 134 102 64 358 354 347 346
187 190 192 193 190 188 187 187 187 189 188 188 188 190 193 192 189 186 174 174 176 176 171 149 136 144 184 312 333 343 348 3
193 199 200 201 198 195 194 194 195 196 197 198 198 202 205 204 205 198 189 183 177 176 182 177 183 207 218 276 309 323 325 331
197 207 207 207 206 206 203 202 203 204 206 206 207 209 211 213 213 210 200 182 167 166 171 183 220 230 267 291 309 320 339 339
206 202 206 210 212 213 212 212 212 213 213 214 215 215 217 219 219 221 213 198 199 207 206 220 229 249 256 278 293 308 317 315
215 208 207 213 214 214 217 218 217 219 221 222 223 224 224 225 228 224 211 210 218 220 227 223 242 243 280 306 302 317 305 326
223 220 217 217 215 215 217 221 221 220 221 223 226 228 231 232 233 235 228 226 228 233 233 246 253 260 267 275 288 285 297 305
222 225 225 226 217 214 214 218 219 222 220 224 228 230 232 234 238 241 243 241 243 247 262 262 256 255 263 276 287 283 287 293
257 246 237 230 226 223 219 220 219 221 223 224 223 223 226 227 234 240 246 250 250 251 257 251 258 260 261 273 280 284 289 282
283 261 252 246 237 237 233 232 232 233 234 236 230 228 224 224 230 238 243 245 246 248 250 248 253 258 264 271 282 285 285 291
329 242 253 251 248 243 239 237 238 244 247 248 250 250 247 242 238 237 242 244 245 249 247 246 251 255 267 274 281 279 278 266
45 47 346 237 243 256 253 247 244 245 247 249 250 252 253 255 258 261 260 251 246 250 253 253 253 256 265 270 272 267 272 266
37 41 55 76 228 241 268 260 251 253 250 248 250 256 258 262 264 268 273 274 266 257 248 249 251 256 261 267 260 250 212 188
30 31 30 36 51 221 237 242 260 257 252 247 250 252 255 257 259 264 265 269 273 263 262 252 248 255 259 259 248 234 198 203
12 16 22 23 25 34 25 237 252 258 257 259 250 252 259 263 261 267 270 268 265 268 264 263 258 249 249 244 242 236 227 222